Location: Gälforsberget
(66.6500°N, 22.4167°E)
Time: 19:45:42
(UTC+00:00)

SL-19 R/B - Pass Details

Date: 11 April 2026
Orbit: 303 x 453 km, 99.4° (Epoch: 19 May)

Event Time Altitude Azimuth Distance (km) Brightness Sun altitude
Exits shadow 20:20:31 - 83° (E) 1,648 6.5 -11.1°
Reaches altitude 10° 20:22:13 10° 56° (NE) 1,210 6.1 -11.2°
Drops below altitude 10° 20:24:04 10° 14° (NNE) 1,221 6.8 -11.3°
Enters shadow 21:17:30 -72° 148° (SSE) 12,558 11.1 -13.6°
Maximum altitude 21:53:49 41° 57° (ENE) 468 4.1 -14.5°
